Flag for Spain Weather past 2 weeks in Sevilla, Spain

Now
79 °F

Passing clouds.


Feels Like: 80 °F
Forecast: 64 / 85 °F
Wind: 15 mph from Southwest

Location: Sevilla / San Pablo

Current Time: Sep 1, 2015 at 8:14:12 PM

Latest Report: Sep 1, 2015 at 7:30 PM


Visibility: N/A

Pressure: 29.95 "Hg

Humidity: 51%

Dew point: 59 °F

Location of SevillaLocation

Historic Weather in Sevilla — Graph

°F

Sevilla temperature yesterday

Maximum temperature yesterday: 88 °F (at 6:00 PM)
Minimum temperature yesterday: 73 °F (at 6:00 AM)
Average temperature yesterday: 79 °F

Past Weeks' High & Low Weather Summary

 TemperatureHumidityPressure
High102 °F (Aug 28, 5:30 PM)88% (Aug 19, 6:47 AM)30.07 "Hg (Aug 19, 6:47 AM)
Low61 °F (Aug 25, 6:30 AM)14% (Aug 25, 8:00 PM)29.83 "Hg (Aug 17, 7:00 PM)
Average80 °F52%29.97 "Hg
* Reported Aug 17 7:00 PM — Sep 1 7:00 PM, Sevilla, Weather by CustomWeather, © 2015

Note: Actual official high and low records may vary slightly from our data, if they occured in-between our weather recording intervals... More about our weather records

Advertising

Sevilla weather history for previous 24 hours

 ConditionsComfort  
Time TempWeatherWind HumidityBarometerVisibility
7:00 PM
Tue, Sep 1
81 °FPassing clouds.14 mph48%29.98 "HgN/A
6:30 PM82 °FPassing clouds.15 mph45%29.95 "HgN/A
6:00 PM82 °FPassing clouds.14 mph45%29.95 "HgN/A
5:00 PM84 °FPassing clouds.14 mph40%29.98 "HgN/A
4:30 PM84 °FPassing clouds.14 mph43%29.98 "HgN/A
4:00 PM84 °FPassing clouds.13 mph40%30.01 "HgN/A
3:30 PM84 °FPassing clouds.9 mph40%30.01 "HgN/A
3:00 PM84 °FPassing clouds.8 mph33%30.01 "HgN/A
2:30 PM84 °FPassing clouds.9 mph31%30.01 "HgN/A
2:00 PM82 °FPassing clouds.8 mph35%30.01 "HgN/A
1:30 PM82 °FPassing clouds.9 mph37%30.04 "HgN/A
1:00 PM81 °FPassing clouds.9 mph45%30.04 "HgN/A
12:30 PM79 °FPassing clouds.7 mph51%30.04 "HgN/A
12:00 PM77 °FPassing clouds.5 mph57%30.04 "HgN/A
11:30 AM75 °FPassing clouds.6 mph61%30.04 "HgN/A
11:00 AM73 °FPassing clouds.6 mph65%30.04 "HgN/A
10:30 AM73 °FPassing clouds.5 mph65%30.04 "HgN/A
10:00 AM72 °FPassing clouds.2 mph69%30.01 "HgN/A
9:30 AM70 °FPassing clouds.5 mph73%30.04 "HgN/A
9:00 AM68 °FSunny.2 mph83%30.01 "Hg10 mi
8:30 AM66 °FClear.2 mph88%30.01 "Hg10 mi
8:00 AM66 °FClear.2 mph83%30.01 "Hg10 mi
7:30 AM66 °FClear.1 mph83%30.01 "Hg10 mi
7:00 AM66 °FClear.No wind88%30.01 "Hg10 mi
6:00 AM68 °FPassing clouds.3 mph83%30.01 "HgN/A
5:30 AM68 °FPassing clouds.5 mph88%30.01 "HgN/A
5:00 AM68 °FPassing clouds.6 mph88%30.01 "HgN/A
4:30 AM68 °FPassing clouds.6 mph88%30.01 "HgN/A
4:00 AM68 °FPassing clouds.6 mph88%30.01 "HgN/A
3:30 AM68 °FPassing clouds.6 mph83%30.01 "HgN/A
1:30 AM70 °FPassing clouds.8 mph83%30.01 "HgN/A
12:30 AM70 °FPassing clouds.8 mph83%29.98 "HgN/A
11:00 PM
Mon, Aug 31
73 °FPassing clouds.7 mph74%29.98 "HgN/A
10:30 PM73 °FPassing clouds.7 mph69%29.98 "HgN/A
10:00 PM75 °FClear.10 mph69%29.95 "Hg10 mi
9:30 PM75 °FSunny.13 mph65%29.95 "Hg10 mi
9:00 PM77 °FPassing clouds.12 mph61%29.92 "HgN/A
8:30 PM81 °FSunny.13 mph51%29.92 "Hg10 mi
8:00 PM82 °FSunny.13 mph45%29.92 "Hg10 mi
Weather by CustomWeather, © 2015

See weather overviewHow to use our weather pages